• In Russia
  • List of Countries
  • For 7 days
  • Water Temperature
  • Satellite Maps
  • Weather Map
  • Weather Widgets
  • user-avatar
    Login

    Hourly Weather Tolna

    Today, 14 December, Thursday

    Time Temperature Precipitation Wind Pressure Humidity
    00:00 0°C° 0 mm 3 mps 751 mmHg 87%
    01:00 0°C° 0 mm 3 mps 750 mmHg 89%
    02:00 -1°C° 0 mm 4 mps 749 mmHg 89%
    03:00 -1°C° 0 mm 4 mps 748 mmHg 89%
    04:00 -1°C° 0 mm 5 mps 748 mmHg 89%
    05:00 -1°C° 0 mm 6 mps 747 mmHg 87%
    06:00 +1°C° 0 mm 6 mps 747 mmHg 85%
    07:00 0°C° 0 mm 7 mps 746 mmHg 82%
    08:00 +3°C° 0 mm 7 mps 746 mmHg 79%
    09:00 +4°C° 0 mm 6 mps 746 mmHg 76%
    10:00 +5°C° 0 mm 6 mps 746 mmHg 72%
    11:00 +5°C° 0.4 mm 6 mps 746 mmHg 75%
    12:00 +7°C° 0.4 mm 5 mps 746 mmHg 77%
    13:00 +7°C° 0.4 mm 4 mps 746 mmHg 79%
    14:00 +7°C° 0.9 mm 4 mps 746 mmHg 82%
    15:00 +6°C° 0.9 mm 4 mps 746 mmHg 84%
    16:00 +7°C° 0.9 mm 3 mps 746 mmHg 87%
    17:00 +6°C° 1.2 mm 4 mps 746 mmHg 88%
    18:00 +5°C° 1.2 mm 4 mps 746 mmHg 88%
    19:00 +5°C° 1.2 mm 4 mps 746 mmHg 89%
    20:00 +5°C° 1.1 mm 4 mps 746 mmHg 88%
    21:00 +5°C° 1.1 mm 5 mps 746 mmHg 86%
    22:00 +5°C° 1.1 mm 5 mps 746 mmHg 85%
    23:00 +4°C° 1.7 mm 4 mps 745 mmHg 87%

    Tomorrow, 15 December, Friday

    Time Temperature Precipitation Wind Pressure Humidity
    00:00 +4°C° 1.7 mm 4 mps 745 mmHg 89%
    01:00 +4°C° 1.7 mm 3 mps 744 mmHg 91%
    02:00 +5°C° 0.1 mm 3 mps 744 mmHg 90%
    03:00 +5°C° 0.1 mm 4 mps 743 mmHg 89%
    04:00 +6°C° 0.1 mm 5 mps 743 mmHg 88%
    05:00 +6°C° 0 mm 5 mps 742 mmHg 84%
    06:00 +7°C° 0 mm 6 mps 742 mmHg 81%
    07:00 +8°C° 0 mm 6 mps 742 mmHg 77%
    08:00 +8°C° 0.2 mm 6 mps 742 mmHg 76%
    09:00 +9°C° 0.2 mm 6 mps 742 mmHg 75%
    10:00 +9°C° 0.2 mm 6 mps 743 mmHg 74%
    11:00 +9°C° 0.6 mm 6 mps 743 mmHg 73%
    12:00 +9°C° 0.6 mm 6 mps 743 mmHg 71%
    13:00 +9°C° 0.6 mm 5 mps 743 mmHg 70%
    14:00 +8°C° 0.1 mm 5 mps 743 mmHg 67%
    15:00 +7°C° 0.1 mm 4 mps 743 mmHg 64%
    16:00 +7°C° 0.1 mm 3 mps 744 mmHg 61%
    17:00 +5°C° 0.7 mm 3 mps 744 mmHg 64%
    18:00 +5°C° 0.7 mm 3 mps 743 mmHg 68%
    19:00 +5°C° 0.7 mm 3 mps 743 mmHg 71%
    20:00 +4°C° 1.5 mm 4 mps 743 mmHg 73%
    21:00 +4°C° 1.5 mm 4 mps 743 mmHg 74%
    22:00 +3°C° 1.5 mm 5 mps 743 mmHg 75%
    23:00 +4°C° 0.6 mm 4 mps 743 mmHg 76%

    Day after tomorrow, 16 December, Saturday

    Time Temperature Precipitation Wind Pressure Humidity
    00:00 +4°C° 0.6 mm 4 mps 743 mmHg 77%
    01:00 +4°C° 0.6 mm 3 mps 742 mmHg 78%
    02:00 +3°C° 0.4 mm 3 mps 743 mmHg 78%
    03:00 +3°C° 0.4 mm 4 mps 743 mmHg 77%
    04:00 +3°C° 0.4 mm 4 mps 743 mmHg 77%
    05:00 +3°C° 0.1 mm 3 mps 743 mmHg 78%
    06:00 +3°C° 0.1 mm 3 mps 744 mmHg 79%
    07:00 +2°C° 0.1 mm 3 mps 745 mmHg 79%
    08:00 +3°C° 0 mm 3 mps 745 mmHg 77%
    09:00 +3°C° 0 mm 3 mps 746 mmHg 76%
    10:00 +3°C° 0 mm 3 mps 747 mmHg 74%
    11:00 +4°C° 0 mm 3 mps 747 mmHg 71%
    12:00 +5°C° 0 mm 4 mps 747 mmHg 68%
    13:00 +5°C° 0 mm 4 mps 747 mmHg 65%
    14:00 +4°C° 0 mm 4 mps 747 mmHg 68%
    15:00 +4°C° 0 mm 3 mps 748 mmHg 71%
    16:00 +3°C° 0 mm 3 mps 748 mmHg 74%
    17:00 +3°C° 0 mm 3 mps 748 mmHg 76%
    18:00 +2°C° 0 mm 3 mps 749 mmHg 77%
    19:00 +2°C° 0 mm 3 mps 750 mmHg 78%
    20:00 +1°C° 0 mm 3 mps 750 mmHg 78%
    21:00 +1°C° 0 mm 3 mps 750 mmHg 78%
    22:00 0°C° 0 mm 4 mps 751 mmHg 78%
    23:00 0°C° 0 mm 4 mps 751 mmHg 78%

    17 December, Sunday

    Time Temperature Precipitation Wind Pressure Humidity
    00:00 0°C° 0 mm 5 mps 751 mmHg 79%
    01:00 0°C° 0 mm 5 mps 751 mmHg 79%
    02:00 -1°C° 0 mm 5 mps 751 mmHg 79%
    03:00 -2°C° 0 mm 6 mps 752 mmHg 79%
    04:00 -2°C° 0 mm 6 mps 752 mmHg 79%
    05:00 -2°C° 0 mm 6 mps 753 mmHg 78%
    06:00 -1°C° 0 mm 5 mps 753 mmHg 78%
    07:00 -1°C° 0 mm 5 mps 754 mmHg 78%
    08:00 -2°C° 0 mm 6 mps 754 mmHg 74%
    09:00 -1°C° 0 mm 6 mps 755 mmHg 70%
    10:00 0°C° 0 mm 7 mps 755 mmHg 66%
    11:00 0°C° 0 mm 7 mps 756 mmHg 65%
    12:00 +2°C° 0 mm 6 mps 756 mmHg 63%
    13:00 +2°C° 0 mm 6 mps 756 mmHg 61%
    14:00 +2°C° 0 mm 5 mps 756 mmHg 64%
    15:00 +1°C° 0 mm 5 mps 756 mmHg 67%
    16:00 +1°C° 0 mm 4 mps 757 mmHg 70%
    17:00 0°C° 0 mm 4 mps 757 mmHg 72%
    18:00 0°C° 0 mm 4 mps 758 mmHg 73%
    19:00 -1°C° 0 mm 4 mps 758 mmHg 75%
    20:00 -1°C° 0 mm 4 mps 759 mmHg 76%
    21:00 -1°C° 0 mm 4 mps 759 mmHg 76%
    22:00 -1°C° 0 mm 4 mps 760 mmHg 76%
    23:00 -1°C° 0 mm 4 mps 760 mmHg 77%

    18 December, Monday

    Time Temperature Precipitation Wind Pressure Humidity
    00:00 -2°C° 0 mm 4 mps 760 mmHg 78%
    01:00 -2°C° 0 mm 4 mps 760 mmHg 78%
    02:00 -2°C° 0 mm 4 mps 760 mmHg 79%
    03:00 -2°C° 0 mm 4 mps 760 mmHg 80%
    04:00 -2°C° 0 mm 4 mps 760 mmHg 81%
    05:00 -1°C° 0 mm 3 mps 761 mmHg 82%
    06:00 -1°C° 0 mm 3 mps 761 mmHg 82%
    07:00 -1°C° 0 mm 3 mps 761 mmHg 82%
    08:00 0°C° 0 mm 3 mps 761 mmHg 77%
    09:00 0°C° 0 mm 3 mps 761 mmHg 71%
    10:00 +1°C° 0 mm 3 mps 761 mmHg 66%
    11:00 +2°C° 0 mm 3 mps 760 mmHg 63%
    12:00 +1°C° 0 mm 4 mps 759 mmHg 60%
    13:00 +3°C° 0 mm 4 mps 758 mmHg 58%
    14:00 +2°C° 0 mm 3 mps 758 mmHg 61%
    15:00 +2°C° 0 mm 3 mps 758 mmHg 65%
    16:00 +1°C° 0 mm 3 mps 757 mmHg 68%
    17:00 +1°C° 0 mm 3 mps 757 mmHg 69%
    18:00 +1°C° 0 mm 3 mps 757 mmHg 70%
    19:00 0°C° 0 mm 4 mps 757 mmHg 71%
    20:00 0°C° 0 mm 4 mps 757 mmHg 72%
    21:00 0°C° 0 mm 4 mps 757 mmHg 73%
    22:00 0°C° 0 mm 4 mps 758 mmHg 74%
    23:00 +1°C° 0 mm 3 mps 758 mmHg 75%

    19 December, Tuesday

    Time Temperature Precipitation Wind Pressure Humidity
    00:00 +1°C° 0 mm 3 mps 758 mmHg 76%
    01:00 0°C° 0 mm 3 mps 758 mmHg 78%
    02:00 +1°C° 0 mm 2 mps 758 mmHg 78%
    03:00 +1°C° 0 mm 2 mps 759 mmHg 78%
    04:00 +1°C° 0 mm 2 mps 759 mmHg 79%
    05:00 +1°C° 0.1 mm 2 mps 759 mmHg 80%
    06:00 +1°C° 0.1 mm 2 mps 760 mmHg 80%
    07:00 +2°C° 0.1 mm 1 mps 760 mmHg 81%
    08:00 +2°C° 0.1 mm 2 mps 761 mmHg 81%
    09:00 +2°C° 0.1 mm 2 mps 761 mmHg 81%
    10:00 +3°C° 0.1 mm 2 mps 762 mmHg 80%
    11:00 +3°C° 0.1 mm 2 mps 762 mmHg 80%
    12:00 +3°C° 0.1 mm 2 mps 762 mmHg 79%
    13:00 +3°C° 0.1 mm 2 mps 762 mmHg 79%
    14:00 +3°C° 0.1 mm 2 mps 762 mmHg 81%
    15:00 +3°C° 0.1 mm 2 mps 762 mmHg 83%
    16:00 +2°C° 0.1 mm 2 mps 762 mmHg 84%
    17:00 +1°C° 0.1 mm 3 mps 763 mmHg 85%
    18:00 +1°C° 0.1 mm 3 mps 763 mmHg 85%
    19:00 0°C° 0.1 mm 3 mps 764 mmHg 85%
    20:00 0°C° 0 mm 3 mps 764 mmHg 84%
    21:00 0°C° 0 mm 3 mps 765 mmHg 84%
    22:00 0°C° 0 mm 3 mps 765 mmHg 83%
    23:00 0°C° 0 mm 3 mps 765 mmHg 84%
    Show more